FW6909 Weather Reports


time (UTC)temp
C
wind
direction
speed
KPH
gust
KPH
rain 1hr
cm
rain 24hr
cm
rain mn
cm
humidity
%
barometer
mb
20260508143048 13 279 6.4 14.5 0.00 0.18 0.18 52 1017.1
20260508142533 13 273 4.8 14.5 0.00 0.18 0.18 54 1017.0
20260508142030 13 276 4.8 14.5 0.00 0.18 0.18 53 1017.0
20260508141553 13 270 6.4 14.5 0.00 0.18 0.18 55 1017.0
20260508141030 13 266 6.4 12.9 0.00 0.18 0.18 54 1016.8
20260508140530 13 340 3.2 11.3 0.00 0.18 0.18 56 1016.9
20260508140044 13 280 1.6 16.1 0.00 0.18 0.18 58 1017.0
20260508135532 13 286 6.4 16.1 0.00 0.18 0.18 55 1016.9
20260508135032 13 302 6.4 16.1 0.00 0.18 0.18 55 1017.0
20260508134553 13 285 6.4 11.3 0.00 0.18 0.18 56 1017.0
20260508134032 13 281 4.8 11.3 0.00 0.18 0.18 56 1017.0
20260508133531 13 278 1.6 11.3 0.00 0.18 0.18 57 1017.0
20260508133036 13 295 4.8 14.5 0.00 0.18 0.18 57 1017.0
20260508132534 13 267 6.4 14.5 0.00 0.18 0.18 57 1016.9
20260508132033 13 285 3.2 14.5 0.00 0.18 0.18 58 1016.9
20260508131543 13 291 8.0 14.5 0.00 0.18 0.18 56 1016.8
20260508131031 13 248 4.8 12.9 0.00 0.18 0.18 58 1016.8
20260508130531 13 285 4.8 12.9 0.00 0.18 0.18 58 1016.7
20260508130043 13 298 4.8 11.3 0.00 0.18 0.18 58 1016.7
20260508125531 13 323 3.2 16.1 0.00 0.20 0.18 58 1016.7
20260508125031 13 298 4.8 16.1 0.00 0.20 0.18 58 1016.8
20260508124542 13 294 6.4 16.1 0.00 0.20 0.18 58 1016.7
20260508124031 13 281 3.2 9.7 0.00 0.20 0.18 60 1016.6
20260508123531 13 30 3.2 11.3 0.00 0.20 0.18 60 1016.6
20260508123044 12 245 3.2 12.9 0.00 0.20 0.18 60 1016.7
20260508122532 12 259 6.4 12.9 0.00 0.20 0.18 58 1016.6
20260508122031 13 290 3.2 12.9 0.00 0.20 0.18 59 1016.5
20260508121542 13 266 4.8 12.9 0.00 0.20 0.18 59 1016.6
20260508121030 13 269 3.2 12.9 0.00 0.20 0.18 60 1016.5
20260508120530 12 309 1.6 9.7 0.00 0.20 0.18 61 1016.4
20260508120045 12 281 4.8 11.3 0.00 0.20 0.18 61 1016.6
20260508115531 12 307 6.4 11.3 0.00 0.20 0.18 60 1016.5
20260508115030 12 250 6.4 11.3 0.00 0.20 0.18 59 1016.5
20260508114548 12 296 4.8 11.3 0.00 0.20 0.18 61 1016.5
20260508114030 12 320 4.8 12.9 0.00 0.20 0.18 60 1016.5
20260508113533 13 272 4.8 12.9 0.00 0.20 0.18 61 1016.4
20260508113040 12 286 4.8 12.9 0.00 0.20 0.18 61 1016.2
20260508112528 13 230 4.8 11.3 0.00 0.20 0.18 60 1016.3
20260508112031 12 286 4.8 14.5 0.00 0.20 0.18 61 1016.2
20260508111545 12 289 6.4 17.7 0.00 0.20 0.18 60 1016.2
20260508111030 12 300 8.0 17.7 0.00 0.20 0.18 61 1016.1
20260508110530 12 288 8.0 17.7 0.00 0.20 0.18 60 1016.2
20260508110035 12 279 4.8 14.5 0.00 0.20 0.18 61 1016.2
20260508105531 12 296 6.4 14.5 0.00 0.20 0.18 60 1016.3
20260508105031 12 285 6.4 14.5 0.00 0.20 0.18 59 1016.1
20260508104535 12 294 4.8 12.9 0.00 0.20 0.18 60 1016.1
20260508104030 12 259 6.4 12.9 0.00 0.20 0.18 60 1016.1
20260508103530 12 279 6.4 12.9 0.00 0.20 0.18 60 1016.0
20260508103040 12 266 6.4 12.9 0.00 0.20 0.18 60 1015.9
20260508102530 12 227 6.4 12.9 0.00 0.20 0.18 63 1016.0
20260508102030 12 287 4.8 12.9 0.00 0.20 0.18 63 1015.9
20260508101542 12 311 4.8 14.5 0.00 0.20 0.18 61 1015.9
20260508101031 12 226 6.4 14.5 0.00 0.20 0.18 62 1015.9
20260508100531 12 231 6.4 11.3 0.00 0.20 0.18 61 1015.9
20260508100041 12 299 3.2 11.3 0.00 0.20 0.18 64 1015.8
20260508095531 12 291 3.2 11.3 0.00 0.20 0.18 64 1015.7
20260508095032 12 266 3.2 11.3 0.00 0.20 0.18 64 1015.7
20260508094553 12 226 4.8 11.3 0.00 0.20 0.18 65 1015.7
20260508094031 12 272 4.8 11.3 0.00 0.20 0.18 65 1015.6
20260508093531 12 252 3.2 12.9 0.00 0.20 0.18 66 1015.6
20260508093036 12 283 4.8 12.9 0.00 0.20 0.18 65 1015.5
20260508092531 12 305 4.8 11.3 0.00 0.20 0.18 67 1015.6
20260508092030 11 296 3.2 11.3 0.00 0.20 0.18 69 1015.6
20260508091545 11 284 3.2 9.7 0.00 0.20 0.18 69 1015.6
20260508091032 11 291 4.8 11.3 0.00 0.20 0.18 69 1015.6
20260508090531 11 302 4.8 11.3 0.00 0.20 0.18 70 1015.7
20260508090049 11 245 3.2 11.3 0.00 0.20 0.18 70 1015.5
20260508085527 11 260 4.8 11.3 0.00 0.23 0.18 71 1015.3
20260508085031 11 267 4.8 11.3 0.00 0.23 0.18 72 1015.2
20260508084540 11 290 4.8 11.3 0.00 0.23 0.18 73 1015.2
20260508084033 11 293 3.2 11.3 0.00 0.23 0.18 74 1015.2
20260508083533 11 285 3.2 12.9 0.00 0.23 0.18 74 1015.2
20260508083038 11 267 4.8 12.9 0.00 0.23 0.18 74 1015.1
20260508082531 10 289 4.8 11.3 0.00 0.23 0.18 76 1015.0
20260508082031 10 252 3.2 9.7 0.00 0.23 0.18 77 1014.9
20260508081600 10 288 3.2 8.0 0.00 0.23 0.18 78 1015.0
20260508081030 10 228 3.2 12.9 0.00 0.23 0.18 78 1015.0
20260508080534 10 319 4.8 12.9 0.00 0.23 0.18 78 1015.0
20260508080036 10 288 6.4 12.9 0.00 0.23 0.18 78 1015.0
20260508075533 10 295 4.8 11.3 0.00 0.23 0.18 79 1014.8
20260508075031 10 283 1.6 6.4 0.00 0.23 0.18 81 1014.7
20260508074536 10 319 0.0 4.8 0.00 0.23 0.18 82 1014.7
20260508074034 10 278 3.2 4.8 0.00 0.23 0.18 82 1014.8
20260508073531 10 211 0.0 4.8 0.00 0.23 0.18 83 1014.7
20260508073040 9 276 1.6 9.7 0.00 0.23 0.18 82 1014.6
20260508072531 9 298 3.2 9.7 0.00 0.23 0.18 83 1014.5
20260508072032 9 247 1.6 4.8 0.00 0.23 0.18 84 1014.5
20260508071544 9 287 1.6 4.8 0.00 0.23 0.18 84 1014.4
20260508071031 9 262 1.6 4.8 0.00 0.23 0.18 85 1014.4
20260508070533 9 0 0.0 3.2 0.00 0.23 0.18 85 1014.3
20260508070039 8 263 0.0 3.2 0.00 0.23 0.18 85 1014.1
20260508065530 8 338 0.0 4.8 0.00 0.23 0.18 86 1014.1
20260508065030 8 0 0.0 4.8 0.00 0.23 0.18 86 1014.0
20260508064543 8 0 0.0 1.6 0.00 0.23 0.18 86 1013.9
20260508064030 8 0 0.0 1.6 0.00 0.23 0.18 86 1013.8
20260508063529 8 245 0.0 1.6 0.00 0.23 0.18 86 1013.9
20260508063052 8 245 0.0 1.6 0.00 0.23 0.18 86 1013.8
20260508062532 8 0 0.0 1.6 0.00 0.23 0.18 86 1013.7
20260508062027 8 233 0.0 4.8 0.00 0.23 0.18 86 1013.6
20260508061543 8 0 0.0 4.8 0.00 0.23 0.18 86 1013.6
20260508061031 8 0 0.0 1.6 0.00 0.23 0.18 87 1013.5
20260508060530 8 0 0.0 1.6 0.00 0.23 0.18 87 1013.5
20260508060039 8 236 0.0 1.6 0.00 0.23 0.18 87 1013.5
20260508055531 8 0 0.0 1.6 0.00 0.23 0.18 87 1013.4
20260508055035 8 270 0.0 1.6 0.00 0.23 0.18 87 1013.4
20260508054538 8 225 0.0 1.6 0.00 0.23 0.18 87 1013.4
20260508054032 8 0 0.0 1.6 0.00 0.23 0.18 87 1013.3
20260508053530 8 0 0.0 0.0 0.00 0.23 0.18 87 1013.2
20260508053042 8 0 0.0 1.6 0.00 0.23 0.18 87 1013.1
20260508052532 8 0 0.0 1.6 0.00 0.23 0.18 87 1013.1
20260508052031 8 160 0.0 3.2 0.00 0.23 0.18 87 1013.0
20260508051535 8 0 0.0 3.2 0.00 0.23 0.18 87 1013.0
20260508051031 8 0 0.0 1.6 0.00 0.23 0.18 87 1013.0
20260508050528 8 219 0.0 3.2 0.00 0.23 0.18 87 1013.0
20260508050047 8 0 0.0 3.2 0.00 0.23 0.18 87 1013.0
20260508045527 8 0 0.0 0.0 0.00 0.23 0.18 87 1013.0
20260508045027 8 0 0.0 0.0 0.00 0.23 0.18 87 1012.9
20260508044542 8 0 0.0 1.6 0.00 0.23 0.18 87 1012.8
20260508044031 8 0 0.0 3.2 0.00 0.23 0.18 87 1012.9
20260508043532 8 0 0.0 3.2 0.00 0.23 0.18 87 1012.7
20260508043037 8 173 0.0 3.2 0.00 0.23 0.18 87 1012.7
20260508042529 8 0 0.0 3.2 0.00 0.23 0.18 87 1012.7
20260508042027 8 0 0.0 1.6 0.00 0.23 0.18 87 1012.7
20260508041536 8 250 0.0 1.6 0.00 0.23 0.18 87 1012.6
20260508041028 8 245 0.0 1.6 0.00 0.23 0.18 87 1012.6
20260508040529 8 0 0.0 1.6 0.00 0.23 0.18 87 1012.4
20260508040048 8 0 0.0 1.6 0.00 0.23 0.18 86 1012.5
20260508035527 8 0 0.0 1.6 0.00 0.23 0.18 86 1012.5
20260508035027 8 0 0.0 0.0 0.00 0.23 0.18 86 1012.5
20260508034542 8 0 0.0 1.6 0.00 0.23 0.18 86 1012.4
20260508034027 8 0 0.0 1.6 0.00 0.23 0.18 86 1012.3
20260508033527 8 0 0.0 1.6 0.00 0.23 0.18 86 1012.3
20260508033036 8 251 0.0 1.6 0.00 0.23 0.18 86 1012.3
20260508032531 8 0 0.0 0.0 0.00 0.23 0.18 86 1012.3
20260508032030 8 0 0.0 1.6 0.00 0.23 0.18 86 1012.3
20260508031537 8 0 0.0 1.6 0.00 0.23 0.18 86 1012.4
20260508031031 8 0 0.0 4.8 0.00 0.23 0.18 86 1012.3
20260508030531 8 0 0.0 4.8 0.00 0.23 0.18 86 1012.3
20260508030036 8 0 0.0 1.6 0.00 0.23 0.18 86 1012.3
20260508025531 8 0 0.0 3.2 0.00 0.23 0.18 86 1012.3
20260508025030 8 0 0.0 3.2 0.00 0.23 0.18 86 1012.2
20260508024546 8 0 0.0 3.2 0.00 0.23 0.18 86 1012.1
20260508024028 8 293 0.0 3.2 0.00 0.23 0.18 86 1012.3
20260508023528 8 245 0.0 3.2 0.00 0.23 0.18 86 1012.2
20260508023042 8 288 0.0 3.2 0.00 0.23 0.18 86 1012.3
20260508022527 8 0 0.0 1.6 0.00 0.23 0.18 86 1012.3
20260508022058 8 0 0.0 1.6 0.00 0.23 0.18 86 1012.2
20260508021539 8 0 0.0 1.6 0.00 0.23 0.18 86 1012.2
20260508021027 8 0 0.0 1.6 0.00 0.23 0.18 86 1012.2
20260508020529 8 0 0.0 1.6 0.00 0.23 0.18 86 1012.2
20260508020036 8 0 0.0 1.6 0.00 0.23 0.18 85 1012.3
20260508015531 8 0 0.0 0.0 0.00 0.23 0.18 85 1012.2
20260508015031 8 0 0.0 0.0 0.00 0.23 0.18 85 1012.2
20260508014541 8 0 0.0 1.6 0.00 0.23 0.18 85 1012.2
20260508014033 8 0 0.0 1.6 0.00 0.23 0.18 85 1012.0
20260508013531 8 0 0.0 3.2 0.00 0.23 0.18 85 1011.9
20260508013035 8 0 0.0 3.2 0.00 0.23 0.18 85 1011.9
20260508012530 8 0 0.0 1.6 0.00 0.23 0.18 85 1011.9
20260508012032 8 0 0.0 1.6 0.00 0.23 0.18 85 1011.9
20260508011538 8 328 0.0 1.6 0.00 0.23 0.18 85 1011.8
20260508011027 8 2 0.0 1.6 0.00 0.23 0.18 85 1011.9
20260508010527 8 304 0.0 3.2 0.00 0.23 0.18 85 1011.9
20260508010039 8 334 0.0 3.2 0.00 0.23 0.18 84 1011.8
20260508005527 8 0 0.0 3.2 0.03 0.23 0.18 84 1011.8
20260508005027 8 160 0.0 3.2 0.03 0.23 0.18 84 1011.8
20260508004536 8 354 0.0 3.2 0.05 0.23 0.18 84 1011.7
20260508004030 8 0 0.0 3.2 0.05 0.23 0.18 84 1011.8
20260508003533 8 0 0.0 4.8 0.08 0.23 0.18 84 1011.8
20260508003041 8 140 0.0 4.8 0.10 0.23 0.18 83 1011.7
20260508002527 8 91 0.0 4.8 0.18 0.23 0.18 83 1011.9
20260508002027 8 0 0.0 3.2 0.18 0.23 0.18 83 1011.9
20260508001542 8 0 0.0 1.6 0.18 0.23 0.18 83 1011.9
20260508001031 8 49 0.0 1.6 0.18 0.23 0.18 82 1012.0
20260508000527 8 0 0.0 1.6 0.18 0.20 0.18 82 1012.0
20260508000041 8 0 0.0 1.6 0.15 0.18 0.15 82 1012.1
20260507235527 8 0 0.0 1.6 0.15 0.18 0.15 81 1012.0
20260507235027 8 0 0.0 3.2 0.15 0.18 0.15 81 1011.9
20260507234537 9 269 0.0 3.2 0.13 0.18 0.13 81 1012.0
20260507234027 9 278 1.6 6.4 0.13 0.18 0.13 80 1011.9
20260507233531 9 250 0.0 6.4 0.08 0.13 0.08 79 1011.9
20260507233043 10 286 1.6 6.4 0.05 0.08 0.05 78 1011.8
20260507232529 10 293 1.6 8.0 0.00 0.03 0.00 77 1011.7
20260507232027 10 338 1.6 8.0 0.00 0.03 0.00 76 1011.7
20260507231538 10 0 0.0 3.2 0.00 0.03 0.00 76 1011.5
20260507231031 10 256 0.0 4.8 0.00 0.03 0.00 76 1011.5
20260507230531 10 266 0.0 6.4 0.00 0.03 0.00 75 1011.5
20260507230049 10 87 0.0 6.4 0.00 0.03 0.00 75 1011.7
20260507225531 10 221 0.0 6.4 0.00 0.03 0.03 75 1011.6
20260507225031 10 303 0.0 6.4 0.00 0.03 0.03 75 1011.5
20260507224542 10 62 1.6 6.4 0.00 0.03 0.03 75 1011.6
20260507224032 10 250 0.0 6.4 0.00 0.03 0.03 75 1011.5
20260507223531 10 4 0.0 6.4 0.00 0.03 0.03 75 1011.6
20260507223041 10 94 1.6 6.4 0.00 0.03 0.03 75 1011.6
20260507222536 10 66 0.0 6.4 0.00 0.03 0.03 76 1011.6
20260507222031 10 250 1.6 6.4 0.00 0.03 0.03 76 1011.6
20260507221540 10 86 1.6 6.4 0.00 0.03 0.03 76 1011.4
20260507221031 10 0 1.6 6.4 0.00 0.03 0.03 76 1011.3
20260507220533 10 49 1.6 6.4 0.00 0.03 0.03 76 1011.3
20260507220037 10 148 1.6 6.4 0.00 0.03 0.03 76 1011.4
20260507215533 10 51 0.0 6.4 0.00 0.03 0.03 76 1011.3
20260507215031 10 272 0.0 6.4 0.00 0.03 0.03 76 1011.4
20260507214556 10 0 0.0 4.8 0.00 0.03 0.03 76 1011.5
20260507214031 10 0 0.0 4.8 0.00 0.03 0.03 75 1011.5
20260507213533 10 320 0.0 4.8 0.00 0.03 0.03 75 1011.5
20260507213044 10 0 0.0 4.8 0.00 0.03 0.03 75 1011.5
20260507212531 10 347 0.0 3.2 0.00 0.03 0.03 75 1011.6
20260507212032 10 72 0.0 3.2 0.00 0.03 0.03 74 1011.5
20260507211539 10 0 0.0 1.6 0.00 0.03 0.03 74 1011.6
20260507211030 10 0 0.0 1.6 0.00 0.03 0.03 74 1011.6
20260507210531 10 0 0.0 1.6 0.00 0.03 0.03 73 1011.6
20260507210036 10 72 0.0 1.6 0.00 0.03 0.03 73 1011.6
20260507205532 10 0 0.0 3.2 0.00 0.03 0.03 73 1011.7
20260507205032 10 73 0.0 4.8 0.00 0.03 0.03 73 1011.5
20260507204543 10 247 0.0 4.8 0.00 0.03 0.03 72 1011.6
20260507204033 10 211 1.6 4.8 0.00 0.03 0.03 72 1011.5
20260507203531 10 0 1.6 6.4 0.00 0.03 0.03 72 1011.5
20260507203101 11 0 0.0 6.4 0.00 0.03 0.03 71 1011.4
20260507202531 11 85 0.0 6.4 0.00 0.03 0.03 71 1011.4
20260507202031 11 9 0.0 6.4 0.00 0.03 0.03 70 1011.4
20260507201554 11 60 0.0 6.4 0.00 0.03 0.03 70 1011.3
20260507201031 11 51 0.0 9.7 0.00 0.03 0.03 70 1011.4
20260507200532 11 224 0.0 9.7 0.00 0.03 0.03 70 1011.2
20260507200103 11 123 0.0 9.7 0.00 0.03 0.03 70 1011.3
20260507195532 11 89 0.0 4.8 0.00 0.03 0.03 69 1011.3
20260507195036 11 75 0.0 4.8 0.00 0.03 0.03 69 1011.3
20260507194537 11 177 1.6 4.8 0.00 0.03 0.03 69 1011.3
20260507194032 11 0 0.0 6.4 0.00 0.03 0.03 68 1011.0
20260507193533 11 260 0.0 6.4 0.00 0.03 0.03 68 1011.1
20260507193044 11 142 0.0 4.8 0.00 0.03 0.03 68 1011.0
20260507192531 11 87 0.0 4.8 0.00 0.03 0.03 68 1010.9
20260507192039 11 0 0.0 3.2 0.00 0.03 0.03 68 1010.9
20260507191543 11 277 0.0 4.8 0.00 0.03 0.03 67 1010.9
20260507191031 12 94 0.0 4.8 0.00 0.03 0.03 67 1010.8
20260507190536 12 95 0.0 4.8 0.00 0.03 0.03 65 1010.8
20260507190042 12 0 0.0 8.0 0.00 0.03 0.03 64 1010.7
20260507185534 12 0 1.6 8.0 0.00 0.03 0.03 63 1010.8
20260507185031 13 317 0.0 6.4 0.00 0.03 0.03 61 1010.7
20260507184541 13 89 1.6 6.4 0.00 0.03 0.03 59 1010.8
20260507184031 13 77 0.0 4.8 0.00 0.03 0.03 58 1010.8
20260507183531 14 343 0.0 4.8 0.00 0.03 0.03 57 1010.9
20260507183046 14 228 1.6 4.8 0.00 0.03 0.03 58 1010.7
20260507182533 13 321 0.0 8.0 0.00 0.03 0.03 58 1010.7
20260507182031 13 359 1.6 8.0 0.00 0.03 0.03 59 1010.5
20260507181543 13 214 1.6 8.0 0.00 0.03 0.03 58 1010.6
20260507181032 13 212 1.6 4.8 0.00 0.03 0.03 59 1010.7
20260507180535 13 27 0.0 4.8 0.00 0.03 0.03 61 1010.8
20260507180038 13 100 0.0 6.4 0.00 0.03 0.03 61 1010.8
20260507175531 12 143 1.6 6.4 0.00 0.03 0.03 62 1010.8
20260507175031 12 333 1.6 6.4 0.00 0.03 0.03 62 1010.9
20260507174544 12 208 1.6 8.0 0.00 0.03 0.03 62 1010.8
20260507174034 12 236 0.0 8.0 0.00 0.03 0.03 63 1010.9
20260507173532 12 75 0.0 6.4 0.00 0.03 0.03 63 1010.8
20260507173040 12 288 1.6 6.4 0.00 0.03 0.03 62 1010.9
20260507172531 12 345 1.6 4.8 0.00 0.03 0.03 61 1010.8
20260507172030 12 295 1.6 4.8 0.00 0.03 0.03 60 1010.9
20260507171536 13 322 0.0 6.4 0.00 0.03 0.03 59 1010.9
20260507171031 13 276 0.0 6.4 0.00 0.03 0.03 59 1010.9
20260507170532 13 356 1.6 4.8 0.00 0.03 0.03 57 1010.9
20260507170043 13 224 1.6 9.7 0.00 0.03 0.03 58 1010.8
20260507165532 13 193 1.6 9.7 0.00 0.03 0.03 57 1010.9
20260507165031 13 147 1.6 9.7 0.00 0.03 0.03 57 1010.9
20260507164556 13 184 0.0 12.9 0.00 0.03 0.03 57 1011.0
20260507164032 13 46 1.6 12.9 0.00 0.03 0.03 56 1010.9
20260507163532 13 247 3.2 11.3 0.00 0.03 0.03 55 1011.0
20260507163041 14 200 1.6 11.3 0.00 0.03 0.03 56 1011.1
20260507162531 14 257 1.6 11.3 0.00 0.03 0.03 58 1011.0
20260507162031 14 281 4.8 14.5 0.00 0.03 0.03 57 1010.9
20260507161542 14 323 1.6 14.5 0.00 0.03 0.03 58 1010.9
20260507161031 14 210 1.6 11.3 0.00 0.03 0.03 59 1010.9
20260507160531 14 305 1.6 8.0 0.00 0.03 0.03 59 1010.9
20260507160036 14 231 1.6 16.1 0.00 0.03 0.03 58 1010.9
20260507155530 14 120 3.2 16.1 0.00 0.03 0.03 59 1010.8
20260507155031 14 279 4.8 16.1 0.00 0.03 0.03 58 1010.9
20260507154550 14 283 3.2 9.7 0.00 0.03 0.03 59 1010.9
20260507154031 14 354 3.2 9.7 0.00 0.03 0.03 60 1010.8
20260507153532 14 75 3.2 9.7 0.00 0.03 0.03 59 1010.9
20260507153042 14 143 3.2 9.7 0.00 0.03 0.03 59 1010.7
20260507152533 15 335 1.6 16.1 0.00 0.03 0.03 60 1011.0
20260507152032 14 309 3.2 16.1 0.00 0.03 0.03 60 1010.9
20260507151542 14 309 1.6 12.9 0.00 0.03 0.03 60 1010.9
20260507151031 14 1 0.0 9.7 0.00 0.03 0.03 61 1010.9
20260507150531 14 11 3.2 9.7 0.00 0.03 0.03 61 1010.8
20260507150047 14 42 1.6 11.3 0.00 0.03 0.03 61 1011.0
20260507145531 14 306 3.2 11.3 0.00 0.03 0.03 62 1011.0
20260507145035 14 217 1.6 6.4 0.00 0.03 0.03 62 1011.0
20260507144537 14 100 1.6 4.8 0.00 0.03 0.03 63 1011.1
20260507144032 14 108 1.6 4.8 0.00 0.03 0.03 63 1011.2
20260507143532 14 124 1.6 11.3 0.00 0.03 0.03 62 1011.0